West Plains, MO

1:31 AM CDT on May 26, 2017 (GMT -0500)
West Plains Municipal

Weather History for KUNO - April, 2014

Change the Weather History Date:

Monday, April 28, 2014

  Actual Average Record
Temperature  
Mean Temperature 64 °F 61 °F  
Max Temperature 74 °F 73 °F 88 °F (1970)
Min Temperature 54 °F 49 °F 27 °F (1992)
Degree Days  
Heating Degree Days 1 5  
Month to date heating degree days 227 242  
Since 1 July heating degree days 4727 4252  
Cooling Degree Days 0 1  
Month to date cooling degree days 9 23  
Year to date cooling degree days 9 27  
Growing Degree Days 14 (Base 50)    
Moisture  
Dew Point 51 °F    
Average Humidity 61    
Maximum Humidity 93    
Minimum Humidity 28    
Precipitation  
Precipitation 0.08 in 0.15 in 1.26 in (1991)
Month to date precipitation 4.10 4.15  
Year to date precipitation 9.17 14.00  
Sea Level Pressure  
Sea Level Pressure 29.51 in    
Wind  
Wind Speed 11 mph (South)    
Max Wind Speed 25 mph    
Max Gust Speed 39 mph    
Visibility 9 miles    
Events Rain , Thunderstorm    
T = Trace of Precipitation, MM = Missing Value Source: NWS Daily Summary

Daily Weather History Graph

Daily Weather History Graph

Search for Another Location

Airport or City:

Trip Planner

Search our weather history database for the weather conditions in past years. The results will help you decide how hot, cold, wet, or windy it might be!

Date:

Astronomy

Apr. 28, 2014 Rise Set
Actual Time 6:16 AM CDT 7:53 PM CDT
Civil Twilight 5:49 AM CDT 8:21 PM CDT
Nautical Twilight 5:16 AM CDT 8:54 PM CDT
Astronomical Twilight 4:41 AM CDT 9:30 PM CDT
Moon 5:53 AM CDT (4/28) 7:32 PM CDT (4/28)
Length of Visible Light 14h 32m
Length of Day
13h 36m
Waning Crescent, 0% of the Moon is Illuminated
Apr 28
Waning Crescent
Apr 29
New
May 6
First Quarter
May 14
Full
May 21
Last Quarter

Hourly Weather History & Observations

Time (CDT) Temp. Dew Point Humidity Pressure Visibility Wind Dir Wind Speed Gust Speed Precip Events Conditions
12:00 AM 61.0 °F 57.9 °F 90% 29.51 in 10.0 mi SE 6.9 mph - N/A   Mostly Cloudy
12:10 AM 61.0 °F 57.9 °F 90% 29.52 in 10.0 mi SSE 5.8 mph - N/A   Mostly Cloudy
12:24 AM 61.0 °F 59.0 °F 93% 29.53 in 10.0 mi SSE 6.9 mph - N/A   Overcast
12:42 AM 62.1 °F 59.0 °F 90% 29.59 in 10.0 mi SSW 12.7 mph 18.4 mph N/A   Overcast
12:51 AM 62.6 °F 57.2 °F 82% 29.61 in 2.0 mi WSW 24.2 mph 39.1 mph 0.16 in Rain Heavy Rain
1:00 AM 60.1 °F 53.1 °F 78% 29.58 in 3.0 mi WSW 16.1 mph 31.1 mph 0.02 in Rain , Thunderstorm Thunderstorms and Rain
1:45 AM 57.9 °F 55.0 °F 90% 29.60 in 4.0 mi South 4.6 mph - 0.07 in Rain , Thunderstorm Light Rain
2:06 AM 57.9 °F 55.0 °F 90% 29.52 in 10.0 mi ENE 5.8 mph - 0.00 in Rain , Thunderstorm Light Thunderstorms and Rain
2:18 AM 57.0 °F 55.0 °F 93% 29.48 in 8.0 mi East 6.9 mph - 0.01 in Rain Light Rain
3:53 AM 57.0 °F 54.0 °F 89% 29.47 in 10.0 mi SE 6.9 mph - N/A   Clear
4:00 AM 57.0 °F 54.0 °F 89% 29.50 in 10.0 mi SE 5.8 mph - N/A   Scattered Clouds
4:13 AM 55.9 °F 54.0 °F 93% 29.51 in 10.0 mi SE 6.9 mph - N/A   Mostly Cloudy
4:23 AM 55.9 °F 54.0 °F 93% 29.52 in 10.0 mi SE 5.8 mph - N/A   Mostly Cloudy
5:53 AM 55.9 °F 54.0 °F 93% 29.51 in 10.0 mi ESE 11.5 mph - N/A   Overcast
6:21 AM 55.9 °F 54.0 °F 93% 29.53 in 10.0 mi SE 11.5 mph - N/A   Overcast
6:53 AM 55.9 °F 54.0 °F 93% 29.48 in 10.0 mi SE 6.9 mph - N/A   Mostly Cloudy
7:53 AM 57.0 °F 55.0 °F 93% 29.47 in 10.0 mi SSE 9.2 mph - N/A   Overcast
8:03 AM 57.9 °F 55.0 °F 90% 29.49 in 10.0 mi SE 6.9 mph - N/A   Overcast
9:53 AM 63.0 °F 59.0 °F 87% 29.49 in 7.0 mi South 11.5 mph - N/A   Overcast
10:06 AM 64.0 °F 60.1 °F 87% 29.51 in 7.0 mi SSE 8.1 mph - N/A   Overcast
10:41 AM 66.0 °F 61.0 °F 84% 29.50 in 8.0 mi South 9.2 mph - N/A   Overcast
10:50 AM 68.0 °F 60.8 °F 78% 29.49 in 9.0 mi South 9.2 mph 19.6 mph N/A   Mostly Cloudy
10:53 AM 68.0 °F 61.0 °F 78% 29.47 in 9.0 mi South 11.5 mph 19.6 mph N/A   Mostly Cloudy
11:53 AM 72.0 °F 54.0 °F 53% 29.45 in 10.0 mi SSW 18.4 mph 31.1 mph N/A   Partly Cloudy
1:53 PM 73.0 °F 51.1 °F 46% 29.46 in 10.0 mi WSW 13.8 mph 26.5 mph N/A   Scattered Clouds
2:53 PM 72.0 °F 42.1 °F 34% 29.47 in 10.0 mi WSW 17.3 mph 27.6 mph N/A   Clear
4:53 PM 72.0 °F 39.0 °F 30% 29.46 in 10.0 mi WSW 15.0 mph 24.2 mph N/A   Clear
5:53 PM 70.0 °F 36.0 °F 29% 29.49 in 10.0 mi West 15.0 mph 28.8 mph N/A   Clear
6:53 PM 68.0 °F 37.9 °F 33% 29.49 in 10.0 mi West 13.8 mph 21.9 mph N/A   Clear
7:53 PM 64.9 °F 37.0 °F 36% 29.52 in 10.0 mi WSW 10.4 mph 19.6 mph N/A   Clear
8:53 PM 60.1 °F 37.9 °F 44% 29.54 in 10.0 mi SW 4.6 mph - N/A   Clear
9:53 PM 61.0 °F 37.0 °F 41% 29.57 in 10.0 mi WSW 10.4 mph - N/A   Clear
10:53 PM 59.0 °F 37.0 °F 44% 29.58 in 10.0 mi WSW 9.2 mph - N/A   Clear
11:53 PM 57.0 °F 37.9 °F 49% 29.56 in 10.0 mi SW 9.2 mph - N/A   Clear